Theta_e
322 323 326 328 328 328 329 329 328 330 336 337 340 342 336 335 333 328 325 324 341 344 344 342 339 338 338 338 337 337 336 334 334 334 335 335 333 332 330 332 333 335 337
319 319 319 324 324 326 327 326 326 327 328 330 336 338 335 333 330 322 319 325 335 339 337 337 336 335 335 335 335 330 326 325 329 331 329 328 328 328 326 328 332 332 335
318 318 319 319 323 323 322 323 323 323 325 325 329 331 331 333 329 333 331 334 329 328 330 332 331 331 329 328 328 328 327 324 323 323 324 322 322 320 321 322 325 332 334
316 316 317 317 320 323 323 321 320 321 322 322 323 325 326 326 326 328 329 328 322 323 324 326 327 325 324 324 324 326 324 323 321 322 321 320 322 320 324 325 327 330 331
315 315 315 316 316 319 319 319 320 317 320 322 318 322 324 325 324 324 323 327 326 326 324 324 323 323 324 323 325 324 323 320 320 320 320 319 319 321 323 323 324 329 329
315 315 314 314 315 315 318 317 318 318 316 317 316 320 323 322 325 323 325 324 324 324 326 322 322 322 321 321 322 321 316 313 318 320 320 321 322 321 322 323 326 325 326
314 313 314 314 314 314 314 317 317 318 317 315 316 318 317 317 322 324 322 321 322 323 323 323 322 324 321 321 319 318 316 317 316 316 320 322 322 322 323 325 327 328 328
311 310 311 312 312 313 313 313 317 316 317 317 317 315 318 318 318 321 323 323 324 326 325 324 326 324 323 322 322 322 321 320 319 319 318 318 319 320 322 322 319 320 321
310 310 309 309 309 308 310 314 313 317 318 317 316 315 316 318 317 315 318 322 323 322 325 327 326 327 326 326 324 324 324 323 322 319 319 318 318 317 318 318 317 319 322
308 307 307 306 306 307 307 308 312 312 315 317 317 318 317 317 316 315 316 321 323 320 316 329 328 328 327 326 325 324 324 323 321 320 320 320 317 315 316 318 321 321 324
307 306 306 306 305 306 307 306 306 309 312 313 315 316 316 317 320 320 319 318 319 323 320 323 324 326 327 326 326 325 324 323 322 321 319 317 315 316 316 318 320 322 324
306 305 305 304 304 304 305 305 305 307 307 308 312 314 314 316 316 315 318 321 321 323 324 324 324 326 326 326 326 326 325 323 321 318 316 315 316 316 316 317 318 323 326
305 305 304 303 303 303 303 303 305 305 305 307 307 309 312 314 314 314 317 317 319 322 323 323 324 325 324 325 324 324 323 322 319 316 316 316 316 316 316 316 321 326 324
303 302 302 302 302 302 302 302 303 303 304 305 306 307 308 311 313 313 314 316 315 317 319 323 323 322 321 321 322 322 321 319 317 316 317 317 317 317 316 317 324 325 329
300 300 301 301 301 301 301 302 302 302 303 304 304 305 307 309 309 308 309 312 311 314 315 318 320 320 320 319 321 320 318 318 316 316 316 317 317 317 318 319 322 323 328
299 299 299 299 300 300 301 302 302 301 302 303 303 304 304 305 306 305 306 305 305 304 309 317 319 319 320 320 320 320 318 317 317 318 318 318 318 318 317 319 322 325 329
299 299 299 299 299 299 299 300 301 301 301 301 301 301 301 301 302 303 303 304 303 303 303 315 318 319 319 319 321 319 319 319 319 319 318 318 318 318 318 322 322 327 329
296 297 298 297 296 296 296 296 297 297 298 298 299 299 300 301 301 301 301 301 301 302 305 307 318 318 318 319 319 321 320 319 319 319 319 319 317 318 321 323 324 327 328
294 294 294 295 295 294 294 295 296 296 296 296 297 298 297 298 298 300 300 300 301 302 304 307 312 317 317 317 319 319 319 319 318 317 317 317 317 320 323 324 324 328 328
292 292 292 293 294 294 294 294 294 295 296 296 295 297 297 297 298 298 298 299 301 301 303 305 309 312 315 316 316 316 316 316 316 316 317 319 321 322 324 325 327 329 327
291 292 292 292 293 294 294 294 294 295 296 297 297 297 298 298 300 300 300 301 302 302 303 305 309 310 311 313 313 313 314 315 316 316 317 319 320 322 325 327 328 327 327
293 293 294 295 295 296 296 296 297 297 298 299 299 299 299 297 300 301 301 301 302 303 305 306 308 310 311 312 311 312 315 317 318 318 320 321 323 323 326 328 326 328 328
297 297 298 299 302 304 303 305 308 306 303 304 303 301 299 299 301 302 302 302 303 304 306 307 309 309 310 310 313 312 314 315 316 318 320 322 325 327 327 327 326 326 328
304 303 302 302 302 303 302 303 303 304 305 307 304 302 301 301 303 303 303 303 304 305 306 306 308 310 308 310 314 312 314 315 316 318 321 323 326 327 327 326 324 327 325
299 300 299 300 300 300 299 299 299 300 301 302 306 305 304 304 304 304 304 305 306 306 307 307 308 309 308 310 314 314 315 316 320 322 322 325 326 327 326 326 327 325 323
295 295 296 296 297 297 297 297 296 297 297 299 300 304 306 306 306 306 306 307 307 308 308 309 311 310 310 311 314 315 318 320 321 323 325 326 326 325 325 327 326 322 320
Wind_Speed
14 12 18 10 10 16 17 18 17 18 24 32 31 27 21 22 24 20 21 40 21 24 19 20 18 16 17 17 15 12 19 19 9 17 20 20 17 18 20 21 23 25 26
17 17 20 12 10 12 13 15 19 19 22 28 30 24 20 29 27 17 8 45 10 17 16 13 14 16 19 17 14 12 15 18 6 4 12 15 16 16 20 23 25 22 22
12 14 17 17 15 12 14 13 9 12 18 34 28 26 25 22 16 19 40 33 13 10 12 18 13 14 10 9 9 2 6 9 11 12 15 19 22 23 26 26 23 20 20
15 18 19 22 17 18 20 21 21 14 15 19 28 41 20 12 10 13 16 15 16 18 17 15 12 13 13 11 7 3 5 9 10 12 14 19 19 20 18 20 19 18 20
18 18 20 21 26 21 19 22 25 27 20 20 20 31 39 19 24 19 22 24 19 19 16 17 16 15 11 11 9 8 9 4 6 10 13 16 17 18 18 21 19 17 19
20 20 21 23 25 27 23 19 20 25 26 26 20 14 26 27 25 16 16 17 18 16 18 18 17 16 15 13 14 15 11 11 11 11 13 13 15 18 21 21 20 16 5
20 24 27 26 27 27 27 22 19 22 29 35 27 15 17 18 28 22 11 22 20 20 21 23 23 16 22 20 20 20 19 17 17 17 18 16 18 20 21 22 20 19 18
23 24 25 26 27 29 26 27 22 24 24 28 29 30 21 26 22 23 15 13 14 23 24 23 22 23 26 27 23 23 24 22 20 21 24 21 21 20 21 24 26 24 27
22 26 27 28 27 28 33 25 26 22 23 26 29 33 32 29 34 29 23 16 18 27 24 31 29 27 25 23 27 23 20 20 17 15 18 22 20 19 23 27 26 17 15
24 25 26 25 28 29 30 27 27 22 23 24 24 25 30 29 33 31 28 17 14 20 46 22 31 32 32 31 27 25 21 26 18 17 15 12 17 22 20 23 29 18 18
26 26 29 28 27 31 27 26 30 26 24 26 26 25 29 26 25 30 30 30 22 22 25 34 27 26 35 33 35 32 32 27 19 16 14 15 16 21 21 22 26 26 18
26 29 31 26 27 28 30 26 25 23 23 21 23 27 27 24 28 35 32 30 32 30 26 29 29 34 39 38 38 35 35 30 23 18 17 18 18 21 22 23 25 26 26
29 26 26 28 28 26 26 27 24 26 23 22 22 21 24 24 28 30 30 35 34 35 28 28 22 30 38 41 44 44 39 32 23 17 17 19 21 22 24 28 25 23 27
25 26 26 29 29 29 29 30 28 28 27 28 25 23 26 24 25 25 26 31 38 38 35 33 33 29 18 25 36 44 42 32 23 19 18 21 21 22 24 25 22 20 20
26 27 28 24 26 27 28 28 28 30 28 26 28 29 23 21 26 11 11 23 9 22 33 28 27 28 22 16 20 24 31 23 21 20 20 22 22 22 23 22 20 19 19
24 24 25 23 22 22 22 23 29 36 35 31 35 32 25 28 31 23 15 10 10 15 14 27 26 25 24 23 19 21 22 26 23 23 22 22 21 19 22 20 15 17 19
24 24 22 22 21 22 21 22 15 23 27 30 34 39 39 37 37 38 33 23 21 22 14 18 24 23 22 26 24 26 23 25 25 26 24 23 24 21 22 15 13 17 9
26 25 24 21 21 21 22 24 24 21 15 23 30 38 40 40 42 40 37 30 21 19 15 16 20 22 23 23 28 25 24 22 23 25 24 22 22 22 19 11 15 16 14
23 22 21 21 23 26 26 23 23 23 23 24 24 27 35 39 42 42 37 26 19 19 18 17 20 18 23 25 19 24 21 20 21 22 24 22 23 22 18 14 18 20 17
24 27 26 24 25 23 23 22 22 23 22 20 21 24 22 26 24 26 28 27 27 26 23 22 20 21 19 20 25 23 18 15 14 12 13 15 16 16 17 16 16 15 17
22 22 22 22 22 22 21 21 20 19 19 19 22 24 24 25 20 21 23 29 29 27 27 28 21 23 20 16 13 12 12 16 18 18 22 21 21 21 19 19 22 20 21
19 19 17 17 19 18 20 21 20 18 18 18 18 18 27 27 21 21 20 22 23 28 27 28 25 20 12 15 23 16 11 12 10 13 18 21 22 23 20 20 16 10 20
15 16 17 16 13 10 10 13 7 6 11 13 16 16 21 22 21 19 20 22 24 25 25 22 18 14 17 17 15 20 18 18 23 23 23 23 21 20 18 18 17 15 18
16 14 15 15 15 13 13 13 13 14 16 7 6 11 16 19 17 18 19 21 23 22 23 22 20 17 22 24 20 26 23 28 25 26 23 23 20 20 21 21 22 18 19
18 18 17 17 17 16 15 16 16 16 17 17 10 12 12 15 16 17 19 21 22 23 25 27 24 25 29 29 22 22 24 25 23 21 20 19 21 22 27 22 16 23 28
23 22 21 21 20 19 18 17 18 18 17 18 19 13 7 11 12 15 17 20 23 23 25 25 24 26 29 25 24 23 22 24 22 19 20 20 20 21 22 17 26 26 26
Wind_Direction
329 352 343 4 334 327 318 320 318 315 289 280 279 282 255 224 228 266 277 280 214 182 180 191 193 206 230 242 261 232 259 260 243 271 275 275 282 291 293 279 274 272 276
331 328 319 322 320 319 318 332 317 310 314 309 278 268 253 250 240 233 159 270 211 188 190 192 204 210 223 235 255 286 302 295 296 263 296 296 303 314 310 307 278 270 274
311 315 309 309 307 311 318 326 343 331 314 319 310 286 243 230 220 206 183 216 208 192 176 175 195 215 200 208 211 279 330 344 350 339 323 319 313 307 302 297 289 279 287
312 314 307 300 287 273 282 300 305 307 323 306 335 318 244 235 209 162 178 205 213 209 209 207 192 190 222 206 211 239 297 306 314 310 308 297 297 316 327 347 330 301 295
289 292 291 295 293 272 262 272 279 286 283 287 330 331 314 235 231 220 212 205 209 207 206 190 180 191 197 202 189 210 225 246 295 307 308 311 315 327 328 323 320 329 320
289 286 280 291 286 285 277 258 276 274 269 271 292 327 311 316 327 211 198 197 211 206 187 180 192 188 202 198 202 210 224 250 255 262 273 285 296 306 307 309 311 312 308
282 277 281 278 278 277 280 267 250 260 264 270 275 275 291 272 288 285 247 215 208 213 203 193 199 196 209 215 222 232 243 244 250 257 254 262 277 287 294 295 291 294 291
300 300 300 298 287 281 275 280 266 246 244 250 258 268 270 270 270 296 306 264 260 219 210 210 207 208 210 212 219 222 228 236 246 249 253 265 271 281 285 284 289 292 288
276 281 281 290 298 304 315 264 270 265 230 241 249 259 260 256 262 271 278 285 260 267 255 210 214 218 225 221 210 218 224 233 234 252 268 273 275 278 287 286 281 281 286
273 276 283 286 289 291 289 307 305 273 288 250 246 247 250 255 261 260 259 252 245 227 248 237 215 218 224 226 223 222 224 236 239 252 261 263 281 291 289 276 271 258 274
276 280 277 271 278 281 282 282 287 302 279 275 269 254 252 256 261 264 262 254 244 231 241 261 256 240 233 231 231 228 231 240 238 245 269 279 280 279 281 281 278 259 257
283 280 277 275 270 270 273 274 271 274 279 288 281 266 258 260 253 252 257 254 247 239 227 237 237 239 237 238 234 230 233 232 229 240 264 271 273 276 278 284 284 264 276
281 270 272 273 268 260 259 267 265 256 259 262 259 265 262 258 253 260 256 251 252 238 235 237 239 240 245 241 236 236 232 225 223 233 247 260 267 275 283 286 279 272 287
276 272 267 264 261 255 257 255 252 257 256 255 250 251 251 260 255 250 253 252 249 252 243 236 241 253 265 265 241 231 225 222 220 227 242 260 273 275 278 279 273 287 286
284 279 270 265 264 258 253 252 250 249 246 249 251 250 252 250 254 265 231 240 261 242 240 234 237 244 247 247 222 219 216 214 213 226 245 254 259 265 269 275 266 283 272
274 274 271 270 268 268 268 262 253 252 251 249 246 248 251 250 257 271 277 296 326 345 280 226 224 227 229 230 212 207 203 210 217 222 228 237 249 256 272 272 268 272 263
280 273 271 270 269 265 258 257 258 255 252 254 253 253 255 255 255 261 268 275 289 303 313 254 224 224 225 227 224 214 211 215 225 227 233 242 244 250 264 252 271 276 239
291 288 278 272 263 260 257 256 258 259 258 257 251 247 249 251 250 254 261 273 276 277 278 280 234 221 228 227 232 233 228 233 237 238 233 235 243 251 255 241 260 256 233
283 280 274 265 259 257 259 259 254 251 245 247 248 243 240 244 248 250 253 244 243 245 250 266 245 229 220 236 232 234 232 229 236 245 244 241 251 247 247 245 259 245 244
281 272 268 267 266 263 257 252 249 248 247 241 235 238 226 231 231 231 231 226 223 224 229 248 243 231 242 220 226 240 244 242 240 253 263 260 248 249 249 249 248 232 219
276 274 267 263 260 261 260 259 254 248 245 239 237 231 215 214 218 215 209 214 216 216 217 224 243 226 236 247 261 254 250 259 246 245 241 242 250 252 253 244 232 236 227
272 271 271 266 268 266 259 259 255 248 245 240 238 224 212 209 214 204 204 206 207 206 209 213 230 234 226 257 243 247 251 264 259 253 246 246 246 240 238 233 219 275 224
283 276 278 282 288 297 277 289 337 245 246 246 233 206 190 197 206 197 193 194 200 198 201 207 212 222 224 246 269 232 238 246 250 248 251 245 245 234 233 202 187 205 219
22 20 18 17 12 17 13 12 17 14 9 41 97 137 164 178 186 180 178 182 188 190 189 203 210 217 219 232 248 239 238 238 250 256 241 245 235 229 197 182 188 232 147
21 21 22 22 23 21 17 16 20 20 18 20 59 109 140 159 166 174 180 179 180 181 187 196 206 216 218 230 240 242 241 245 248 257 255 235 221 200 182 190 195 129 123
26 27 25 25 26 23 22 23 23 25 28 26 31 61 138 161 171 175 180 177 179 181 186 197 207 216 223 231 246 240 246 246 249 256 249 231 206 188 187 193 136 124 122